This is the latest recevied weather packets stored in our database for station/object KQ4NAL. If no packets are shown the sender has not sent any weather packets the latest 10 day(s).
| Time | Temp. | Humidity | Pressure | Rain* | Wind** | Luminosity | Snow |
|---|---|---|---|---|---|---|---|
| 1777709738 | 0.56° C | 98% | 1018.7 hPa | 0 mm | - | 0 W/m² | - |
| 1777709434 | 1.11° C | 98% | 1018.6 hPa | 0 mm | - | 0 W/m² | - |
| 1777709132 | 1.11° C | 98% | 1018.7 hPa | 0 mm | - | 0 W/m² | - |
| 1777708830 | 1.11° C | 98% | 1018.6 hPa | 0 mm | - | 0 W/m² | - |
| 1777708527 | 1.11° C | 98% | 1018.5 hPa | 0 mm | - | 0 W/m² | - |
| 1777708225 | 1.67° C | 98% | 1018.3 hPa | 0 mm | - | 0 W/m² | - |
| 1777707922 | 1.67° C | 98% | 1018.3 hPa | 0 mm | - | 0 W/m² | - |
| 1777707618 | 1.67° C | 98% | 1018 hPa | 0 mm | - | 0 W/m² | - |
| 1777707314 | 1.67° C | 98% | 1018.1 hPa | 0 mm | - | 0 W/m² | - |
| 1777707012 | 1.11° C | 98% | 1018.2 hPa | 0 mm | - | 0 W/m² | - |
| 1777706709 | 1.11° C | 97% | 1018.2 hPa | 0 mm | - | 0 W/m² | - |
| 1777706407 | 1.67° C | 97% | 1018.2 hPa | 0 mm | - | 0 W/m² | - |
| 1777706104 | 1.11° C | 97% | 1018.3 hPa | 0 mm | - | 0 W/m² | - |
| 1777705802 | 1.11° C | 97% | 1017.9 hPa | 0 mm | - | 0 W/m² | - |
| 1777705500 | 1.67° C | 97% | 1018.2 hPa | 0 mm | - | 0 W/m² | - |
| 1777705198 | 1.67° C | 97% | 1018.3 hPa | 0 mm | - | 0 W/m² | - |
| 1777704897 | 1.67° C | 97% | 1018.3 hPa | 0 mm | - | 0 W/m² | - |
| 1777704594 | 1.67° C | 97% | 1018.3 hPa | 0 mm | - | 0 W/m² | - |
| 1777704292 | 1.67° C | 97% | 1018.5 hPa | 0 mm | - | 0 W/m² | - |
| 1777703988 | 1.67° C | 97% | 1018.6 hPa | 0 mm | - | 0 W/m² | - |
| 1777703687 | 1.67° C | 97% | 1018.6 hPa | 0 mm | - | 0 W/m² | - |
| 1777703384 | 2.22° C | 97% | 1018.6 hPa | 0 mm | - | 0 W/m² | - |
| 1777703081 | 2.22° C | 97% | 1018.5 hPa | 0 mm | - | 0 W/m² | - |
| 1777702780 | 1.67° C | 97% | 1018.6 hPa | 0 mm | - | 0 W/m² | - |
| 1777702477 | 1.67° C | 97% | 1018.6 hPa | 0 mm | - | 0 W/m² | - |
* Rain latest hour (hover to see other rain measurements)
** Current wind speed in m/s (hover to see current wind gust speed)